• In Österreich
  • Länderverzeichnis
  • Für 7 Tage
  • Wassertemperatur
  • Satellitenkarten
  • Wetterkarte
  • News
  • Widgets
  • user-avatar
    Anmelden

    Stündliche Wetter Tekkeköy

    Heute, 23 Juli, Montag

    Zeit Temperatur Niederschläge Wind Luftdruck Luftfeuchtigkeit
    00:00 +21°C° 0 mm 2 m/S 750 mmHg 88%
    01:00 +21°C° 0 mm 2 m/S 750 mmHg 88%
    02:00 +21°C° 0 mm 2 m/S 749 mmHg 89%
    03:00 +21°C° 0 mm 2 m/S 749 mmHg 88%
    04:00 +21°C° 0 mm 2 m/S 749 mmHg 86%
    05:00 +21°C° 0 mm 2 m/S 749 mmHg 85%
    06:00 +24°C° 0,1 mm 1 m/S 749 mmHg 76%
    07:00 +27°C° 0,1 mm 1 m/S 749 mmHg 67%
    08:00 +29°C° 0 mm 1 m/S 748 mmHg 59%
    09:00 +30°C° 0 mm 1 m/S 748 mmHg 55%
    10:00 +31°C° 0 mm 2 m/S 748 mmHg 52%
    11:00 +32°C° 0 mm 2 m/S 748 mmHg 49%
    12:00 +32°C° 0,2 mm 2 m/S 747 mmHg 50%
    13:00 +32°C° 0,2 mm 2 m/S 747 mmHg 51%
    14:00 +33°C° 0,2 mm 3 m/S 747 mmHg 52%
    15:00 +31°C° 0,3 mm 3 m/S 747 mmHg 56%
    16:00 +30°C° 0,3 mm 2 m/S 747 mmHg 61%
    17:00 +30°C° 0,3 mm 2 m/S 747 mmHg 65%
    18:00 +28°C° 0,3 mm 2 m/S 747 mmHg 73%
    19:00 +26°C° 0,3 mm 2 m/S 747 mmHg 81%
    20:00 +24°C° 0,3 mm 1 m/S 747 mmHg 89%
    21:00 +24°C° 0 mm 2 m/S 747 mmHg 88%
    22:00 +23°C° 0 mm 2 m/S 747 mmHg 88%
    23:00 +23°C° 0 mm 2 m/S 747 mmHg 88%

    Morgen, 24 Juli, Dienstag

    Zeit Temperatur Niederschläge Wind Luftdruck Luftfeuchtigkeit
    00:00 +23°C° 0 mm 2 m/S 747 mmHg 85%
    01:00 +23°C° 0 mm 2 m/S 747 mmHg 83%
    02:00 +23°C° 0 mm 2 m/S 746 mmHg 81%
    03:00 +23°C° 0 mm 2 m/S 746 mmHg 79%
    04:00 +23°C° 0 mm 2 m/S 746 mmHg 77%
    05:00 +23°C° 0 mm 2 m/S 746 mmHg 75%
    06:00 +26°C° 0 mm 2 m/S 746 mmHg 66%
    07:00 +29°C° 0 mm 3 m/S 746 mmHg 58%
    08:00 +31°C° 0 mm 3 m/S 746 mmHg 49%
    09:00 +34°C° 0 mm 3 m/S 745 mmHg 44%
    10:00 +36°C° 0 mm 3 m/S 745 mmHg 40%
    11:00 +38°C° 0 mm 4 m/S 745 mmHg 36%
    12:00 +38°C° 0 mm 4 m/S 745 mmHg 36%
    13:00 +38°C° 0 mm 4 m/S 744 mmHg 36%
    14:00 +38°C° 0 mm 4 m/S 744 mmHg 36%
    15:00 +36°C° 0,4 mm 4 m/S 744 mmHg 44%
    16:00 +34°C° 0,4 mm 4 m/S 744 mmHg 52%
    17:00 +31°C° 0,4 mm 3 m/S 744 mmHg 61%
    18:00 +29°C° 0,1 mm 3 m/S 744 mmHg 69%
    19:00 +27°C° 0,1 mm 3 m/S 744 mmHg 77%
    20:00 +26°C° 0,1 mm 3 m/S 744 mmHg 86%
    21:00 +26°C° 0 mm 3 m/S 744 mmHg 81%
    22:00 +26°C° 0 mm 2 m/S 744 mmHg 77%
    23:00 +26°C° 0 mm 2 m/S 744 mmHg 73%

    übermorgen, 25 Juli, Mittwoch

    Zeit Temperatur Niederschläge Wind Luftdruck Luftfeuchtigkeit
    00:00 +26°C° 0 mm 2 m/S 744 mmHg 74%
    01:00 +26°C° 0 mm 2 m/S 744 mmHg 74%
    02:00 +25°C° 0 mm 2 m/S 744 mmHg 75%
    03:00 +25°C° 0 mm 1 m/S 744 mmHg 78%
    04:00 +25°C° 0 mm 1 m/S 744 mmHg 81%
    05:00 +24°C° 0 mm 1 m/S 744 mmHg 84%
    06:00 +26°C° 0 mm 1 m/S 744 mmHg 77%
    07:00 +29°C° 0 mm 1 m/S 744 mmHg 70%
    08:00 +31°C° 0 mm 1 m/S 745 mmHg 64%
    09:00 +32°C° 0 mm 2 m/S 744 mmHg 59%
    10:00 +34°C° 0 mm 2 m/S 744 mmHg 54%
    11:00 +36°C° 0 mm 2 m/S 744 mmHg 49%
    12:00 +36°C° 0 mm 3 m/S 744 mmHg 49%
    13:00 +36°C° 0 mm 3 m/S 744 mmHg 48%
    14:00 +36°C° 0 mm 3 m/S 744 mmHg 48%
    15:00 +35°C° 0,5 mm 3 m/S 745 mmHg 55%
    16:00 +34°C° 0,5 mm 3 m/S 745 mmHg 61%
    17:00 +32°C° 0,5 mm 4 m/S 745 mmHg 67%
    18:00 +30°C° 0,4 mm 3 m/S 745 mmHg 76%
    19:00 +28°C° 0,4 mm 3 m/S 746 mmHg 85%
    20:00 +26°C° 0,4 mm 3 m/S 746 mmHg 93%
    21:00 +25°C° 0 mm 3 m/S 746 mmHg 93%
    22:00 +25°C° 0 mm 3 m/S 747 mmHg 93%
    23:00 +25°C° 0 mm 3 m/S 747 mmHg 93%

    26 Juli, Donnerstag

    Zeit Temperatur Niederschläge Wind Luftdruck Luftfeuchtigkeit
    00:00 +25°C° 0 mm 3 m/S 747 mmHg 91%
    01:00 +24°C° 0 mm 3 m/S 747 mmHg 89%
    02:00 +24°C° 0 mm 3 m/S 747 mmHg 87%
    03:00 +24°C° 0 mm 2 m/S 747 mmHg 85%
    04:00 +24°C° 0 mm 2 m/S 748 mmHg 84%
    05:00 +24°C° 0 mm 2 m/S 748 mmHg 82%
    06:00 +26°C° 0 mm 2 m/S 748 mmHg 74%
    07:00 +29°C° 0 mm 2 m/S 748 mmHg 66%
    08:00 +31°C° 0 mm 2 m/S 748 mmHg 57%
    09:00 +33°C° 0 mm 3 m/S 748 mmHg 54%
    10:00 +34°C° 0 mm 3 m/S 748 mmHg 51%
    11:00 +35°C° 0 mm 3 m/S 748 mmHg 47%
    12:00 +35°C° 0,1 mm 4 m/S 748 mmHg 48%
    13:00 +35°C° 0,1 mm 4 m/S 748 mmHg 48%
    14:00 +35°C° 0,1 mm 4 m/S 747 mmHg 48%
    15:00 +34°C° 0 mm 4 m/S 748 mmHg 52%
    16:00 +33°C° 0 mm 3 m/S 748 mmHg 55%
    17:00 +31°C° 0 mm 3 m/S 748 mmHg 59%
    18:00 +29°C° 0 mm 3 m/S 748 mmHg 68%
    19:00 +27°C° 0 mm 2 m/S 749 mmHg 78%
    20:00 +25°C° 0 mm 1 m/S 749 mmHg 87%
    21:00 +25°C° 0 mm 2 m/S 749 mmHg 87%
    22:00 +24°C° 0 mm 2 m/S 749 mmHg 87%
    23:00 +24°C° 0 mm 2 m/S 749 mmHg 87%

    27 Juli, Freitag

    Zeit Temperatur Niederschläge Wind Luftdruck Luftfeuchtigkeit
    00:00 +24°C° 0 mm 2 m/S 749 mmHg 85%
    01:00 +24°C° 0 mm 2 m/S 749 mmHg 83%
    02:00 +24°C° 0 mm 2 m/S 749 mmHg 81%
    03:00 +24°C° 0 mm 2 m/S 749 mmHg 79%
    04:00 +24°C° 0 mm 2 m/S 749 mmHg 78%
    05:00 +24°C° 0 mm 1 m/S 749 mmHg 77%
    06:00 +26°C° 0 mm 1 m/S 749 mmHg 69%
    07:00 +28°C° 0 mm 1 m/S 749 mmHg 61%
    08:00 +31°C° 0 mm 1 m/S 749 mmHg 53%
    09:00 +32°C° 0 mm 2 m/S 749 mmHg 51%
    10:00 +34°C° 0 mm 3 m/S 749 mmHg 48%
    11:00 +35°C° 0 mm 3 m/S 748 mmHg 45%
    12:00 +35°C° 0 mm 4 m/S 748 mmHg 47%
    13:00 +35°C° 0 mm 4 m/S 748 mmHg 48%
    14:00 +35°C° 0 mm 4 m/S 748 mmHg 49%
    15:00 +34°C° 0 mm 4 m/S 748 mmHg 53%
    16:00 +33°C° 0 mm 3 m/S 748 mmHg 57%
    17:00 +31°C° 0 mm 3 m/S 748 mmHg 61%
    18:00 +29°C° 0 mm 2 m/S 748 mmHg 70%
    19:00 +27°C° 0 mm 2 m/S 748 mmHg 79%
    20:00 +25°C° 0 mm 1 m/S 749 mmHg 88%
    21:00 +24°C° 0 mm 1 m/S 749 mmHg 88%
    22:00 +24°C° 0 mm 1 m/S 749 mmHg 88%
    23:00 +24°C° 0 mm 1 m/S 748 mmHg 87%

    28 Juli, Samstag

    Zeit Temperatur Niederschläge Wind Luftdruck Luftfeuchtigkeit
    00:00 +24°C° 0 mm 1 m/S 748 mmHg 86%
    01:00 +23°C° 0 mm 1 m/S 748 mmHg 86%
    02:00 +23°C° 0 mm 1 m/S 748 mmHg 85%
    03:00 +23°C° 0 mm 1 m/S 748 mmHg 83%
    04:00 +23°C° 0 mm 1 m/S 748 mmHg 82%
    05:00 +23°C° 0 mm 1 m/S 748 mmHg 81%
    06:00 +26°C° 0 mm 1 m/S 748 mmHg 72%
    07:00 +28°C° 0 mm 2 m/S 748 mmHg 63%
    08:00 +30°C° 0 mm 2 m/S 748 mmHg 54%
    09:00 +31°C° 0 mm 2 m/S 747 mmHg 51%
    10:00 +33°C° 0 mm 3 m/S 747 mmHg 49%
    11:00 +35°C° 0 mm 3 m/S 747 mmHg 46%
    12:00 +35°C° 0 mm 3 m/S 747 mmHg 47%
    13:00 +35°C° 0 mm 4 m/S 747 mmHg 48%
    14:00 +35°C° 0 mm 4 m/S 746 mmHg 49%
    15:00 +34°C° 0 mm 4 m/S 747 mmHg 54%
    16:00 +33°C° 0 mm 3 m/S 747 mmHg 58%
    17:00 +31°C° 0 mm 3 m/S 747 mmHg 63%
    18:00 +29°C° 0 mm 2 m/S 747 mmHg 73%
    19:00 +27°C° 0 mm 2 m/S 747 mmHg 82%
    20:00 +25°C° 0 mm 1 m/S 748 mmHg 92%
    21:00 +24°C° 0 mm 1 m/S 747 mmHg 92%
    22:00 +24°C° 0 mm 1 m/S 747 mmHg 92%
    23:00 +24°C° 0 mm 2 m/S 747 mmHg 93%
    Mehr zeigen